TimeCET,TemperatureF,Dew PointF,Humidity,Sea Level PressureIn,VisibilityMPH,Wind Direction,Wind SpeedMPH,Gust SpeedMPH,PrecipitationIn,Events,Conditions,WindDirDegrees,DateUTC
12:25 AM,23.0,21.2,93,30.04,1.1,Calm,Calm,-,N/A,,Overcast,0,2013-01-17 23:25:00
1:00 AM,23,21,91,30.05,1,,2.2,,,,Mist,,2013-01-18 00:00:00
1:25 AM,23.0,21.2,93,30.01,1.1,Variable,2.3,-,N/A,,Overcast,0,2013-01-18 00:25:00
1:55 AM,23.0,21.2,93,30.01,1.1,Variable,2.3,-,N/A,,Overcast,0,2013-01-18 00:55:00
2:25 AM,23.0,21.2,93,30.01,1.1,Variable,1.2,-,N/A,,Mostly Cloudy,0,2013-01-18 01:25:00
2:55 AM,23.0,21.2,93,29.98,1.1,Variable,1.2,-,N/A,,Mostly Cloudy,0,2013-01-18 01:55:00
3:25 AM,23.0,21.2,93,29.98,1.1,Variable,1.2,-,N/A,,Mostly Cloudy,0,2013-01-18 02:25:00
3:55 AM,23.0,21.2,93,29.95,1.1,Variable,2.3,-,N/A,,Mostly Cloudy,0,2013-01-18 02:55:00
4:00 AM,23,22,94,29.99,1,,2.2,,,,Mist,,2013-01-18 03:00:00
4:25 AM,23.0,23.0,100,29.95,1.1,Variable,1.2,-,N/A,,Mostly Cloudy,0,2013-01-18 03:25:00
4:55 AM,23.0,23.0,100,29.95,1.1,Variable,2.3,-,N/A,,Mostly Cloudy,0,2013-01-18 03:55:00
5:25 AM,24.8,23.0,93,29.92,1.6,Variable,1.2,-,N/A,,Mostly Cloudy,0,2013-01-18 04:25:00
5:40 AM,24.8,23.0,93,29.92,1.6,Variable,1.2,-,N/A,,Mostly Cloudy,0,2013-01-18 04:40:00
5:55 AM,24.8,23.0,93,29.92,1.6,Variable,3.5,-,N/A,Snow,Light Snow Grains,0,2013-01-18 04:55:00
6:25 AM,24.8,23.0,93,29.92,1.4,Variable,3.5,-,N/A,Snow,Light Snow Grains,0,2013-01-18 05:25:00
6:55 AM,24.8,23.0,93,29.92,1.2,Variable,2.3,-,N/A,Snow,Light Snow Grains,0,2013-01-18 05:55:00
7:00 AM,25,24,92,29.95,1,,2.2,,,Snow,Snow Grains,,2013-01-18 06:00:00
7:25 AM,24.8,23.0,93,29.92,1.2,Variable,3.5,-,N/A,Snow,Light Snow Grains,0,2013-01-18 06:25:00
7:55 AM,24.8,23.0,93,29.92,1.2,East,4.6,-,N/A,Snow,Light Snow Grains,90,2013-01-18 06:55:00
8:25 AM,24.8,23.0,93,29.89,1.2,East,4.6,-,N/A,Snow,Light Snow Grains,80,2013-01-18 07:25:00
8:55 AM,26.6,23.0,86,29.89,1.2,East,4.6,-,N/A,Snow,Light Snow Grains,90,2013-01-18 07:55:00
9:25 AM,26.6,24.8,93,29.89,1.6,East,5.8,-,N/A,Snow,Light Snow Grains,80,2013-01-18 08:25:00
9:55 AM,26.6,24.8,93,29.89,1.6,East,5.8,-,N/A,Snow,Light Snow Grains,90,2013-01-18 08:55:00
10:00 AM,27,24,85,29.91,2,East,6.7,,,Snow,Snow Grains,90,2013-01-18 09:00:00
10:25 AM,26.6,24.8,93,29.86,1.8,East,6.9,-,N/A,,Mostly Cloudy,80,2013-01-18 09:25:00
10:55 AM,28.4,24.8,86,29.86,1.9,East,5.8,-,N/A,,Mostly Cloudy,90,2013-01-18 09:55:00
11:25 AM,28.4,24.8,86,29.86,-9999.0,East,5.8,-,N/A,,Mostly Cloudy,90,2013-01-18 10:25:00
11:52 AM,28.4,24.8,86,29.83,-9999.0,East,6.9,-,N/A,,Mostly Cloudy,100,2013-01-18 10:52:00
11:55 AM,28.4,24.8,86,29.83,-9999.0,East,5.8,-,N/A,,Mostly Cloudy,100,2013-01-18 10:55:00
12:17 PM,28.4,24.8,86,29.83,-9999.0,East,6.9,-,N/A,,Mostly Cloudy,100,2013-01-18 11:17:00
12:24 PM,28.4,23.0,80,29.80,3.1,East,8.1,-,N/A,,Mostly Cloudy,90,2013-01-18 11:24:00
12:25 PM,28.4,23.0,80,29.80,3.1,East,8.1,-,N/A,,Mostly Cloudy,90,2013-01-18 11:25:00
12:55 PM,30.2,24.8,80,29.80,4.3,East,6.9,-,N/A,,Mostly Cloudy,90,2013-01-18 11:55:00
1:00 PM,30,25,73,29.82,4,East,6.7,,,,Partly Cloudy,90,2013-01-18 12:00:00
1:25 PM,30.2,24.8,80,29.77,4.3,East,6.9,-,N/A,,Mostly Cloudy,90,2013-01-18 12:25:00
1:27 PM,30.2,24.8,80,29.77,5.6,East,6.9,-,N/A,,Mostly Cloudy,90,2013-01-18 12:27:00
1:39 PM,30.2,23.0,75,29.77,5.6,East,8.1,-,N/A,,Mostly Cloudy,80,2013-01-18 12:39:00
1:55 PM,30.2,23.0,75,29.77,6.2,East,8.1,-,N/A,,Scattered Clouds,90,2013-01-18 12:55:00
2:25 PM,30.2,23.0,75,29.74,6.2,East,9.2,-,N/A,,Scattered Clouds,90,2013-01-18 13:25:00
2:55 PM,30.2,23.0,75,29.74,6.2,East,8.1,-,N/A,,Mostly Cloudy,100,2013-01-18 13:55:00
3:25 PM,30.2,23.0,75,29.74,6.2,East,6.9,-,N/A,,Mostly Cloudy,100,2013-01-18 14:25:00
3:55 PM,30.2,23.0,75,29.71,6.2,East,6.9,-,N/A,,Mostly Cloudy,90,2013-01-18 14:55:00
4:00 PM,29,23,68,29.74,7,East,6.7,,,,Mostly Cloudy,100,2013-01-18 15:00:00
4:25 PM,30.2,23.0,75,29.71,6.2,East,6.9,-,N/A,,Mostly Cloudy,100,2013-01-18 15:25:00
4:55 PM,30.2,23.0,75,29.71,6.2,East,8.1,-,N/A,,Mostly Cloudy,90,2013-01-18 15:55:00
5:25 PM,28.4,23.0,80,29.68,6.2,East,8.1,-,N/A,,Mostly Cloudy,90,2013-01-18 16:25:00
5:55 PM,30.2,23.0,75,29.68,6.2,East,8.1,-,N/A,,Mostly Cloudy,90,2013-01-18 16:55:00
6:25 PM,30.2,23.0,75,29.68,6.2,East,9.2,-,N/A,,Mostly Cloudy,90,2013-01-18 17:25:00
6:55 PM,30.2,23.0,75,29.65,6.2,East,8.1,-,N/A,,Overcast,80,2013-01-18 17:55:00
7:00 PM,29,23,71,29.68,7,East,6.7,,,,Mostly Cloudy,80,2013-01-18 18:00:00
7:25 PM,30.2,23.0,75,29.65,6.2,East,8.1,-,N/A,,Mostly Cloudy,80,2013-01-18 18:25:00
7:55 PM,30.2,23.0,75,29.62,6.2,East,8.1,-,N/A,,Mostly Cloudy,80,2013-01-18 18:55:00
8:25 PM,30.2,23.0,75,29.62,6.2,East,8.1,-,N/A,,Mostly Cloudy,90,2013-01-18 19:25:00
8:55 PM,28.4,23.0,80,29.62,6.2,East,8.1,-,N/A,,Mostly Cloudy,90,2013-01-18 19:55:00
9:12 PM,30.2,23.0,75,29.62,6.2,East,8.1,-,N/A,,Overcast,90,2013-01-18 20:12:00
9:25 PM,28.4,23.0,80,29.62,6.2,East,8.1,-,N/A,,Mostly Cloudy,90,2013-01-18 20:25:00
9:55 PM,28.4,23.0,80,29.62,6.2,East,8.1,-,N/A,,Mostly Cloudy,80,2013-01-18 20:55:00
10:00 PM,29,23,71,29.64,7,East,8.9,,,,Mostly Cloudy,80,2013-01-18 21:00:00
10:25 PM,30.2,23.0,75,29.59,6.2,East,8.1,-,N/A,,Mostly Cloudy,80,2013-01-18 21:25:00
10:55 PM,30.2,23.0,75,29.59,6.2,East,8.1,-,N/A,,Mostly Cloudy,90,2013-01-18 21:55:00
11:25 PM,30.2,23.0,75,29.56,6.2,East,9.2,-,N/A,,Mostly Cloudy,90,2013-01-18 22:25:00
11:55 PM,30.2,23.0,75,29.56,6.2,East,10.4,-,N/A,,Mostly Cloudy,90,2013-01-18 22:55:00